Chippewa Valley Regional Airport
KEAU : now visible

Airfield :











YOU CAN JOIN US ON...

 
LOGIN :

Register | Disclaimer

   EN    FR    IT 

 









Legend :    VFR   Marginal VFR   IFR   Intensive IFR   Very Intensive IFR
Visi :
Ceiling :
>= 8 km
>= 3000ft
5 to 8 km
1000 to 3000 ft
1500m to 5 km
500 to 1000 ft
800 to 1500m
200 to 500 ft
< 800m
< 200 ft
Symbols :   Thunderstorms  Fog  Heavy snow  Heavy precipitations  Wind > 20 kt






- Airport Elevation : 913 ft
- IATA code : EAU


KEAU - Chippewa Valley Regional

CURRENT METAR :
  • 190056Z 16005KT 10SM CLR 19/09 A3007 RMK AO2 SLP183 T01890089

EXPIRED METARs :
  • 182356Z 13005KT 10SM CLR 21/08 A3007 RMK AO2 SLP185 T02060083 10250 20206 56017
  • 182256Z 15008KT 10SM CLR 23/08 A3009 RMK AO2 SLP189 T02330078

TAF KEAU
Valid from the 19 at 00:00 until the 20 at 00:00 UTC


182325Z 1900/1924 16010KT P6SM SKC
FM190900 15007KT P6SM FEW250 WS020/21035KT
FM191500 18014G20KT P6SM FEW250
KZMP FIR / North America



MET'MAP, your aeronautical weather chart ! - Copyright ORBIFLY December 2007 - Disclaimer

ORBIFLY MET'MAP TEAM :

Programming & Development : Alexandra Zaïnal
Concept & original design : Baudouin d'Aumeries
Assistance for programming : Marc-Olivier Méhu
Technical & hardware support : Manuel Goepfert

Contact : metmap@orbifly.com




SOURCES & CREDITS :

   NOAA       Earth
Advisory